Time,TemperatureF,DewpointF,PressureIn,WindDirection,WindDirectionDegrees,WindSpeedMPH,WindSpeedGustMPH,Humidity,HourlyPrecipIn,Conditions,Clouds,dailyrainin,SoftwareType,DateUTC
2013-12-25 00:08:00,11.8,10.0,30.47,South,186,0.0,0.0,90,0.00,,,0.00,weatherlink.com 1.10,2013-12-25 05:08:00,
2013-12-25 00:23:00,12.1,10.0,30.46,South,184,0.0,0.0,90,0.00,,,0.00,weatherlink.com 1.10,2013-12-25 05:23:00,
2013-12-25 00:38:00,12.3,10.0,30.45,South,184,0.0,0.0,90,0.00,,,0.00,weatherlink.com 1.10,2013-12-25 05:38:00,
2013-12-25 00:53:00,12.5,10.0,30.45,South,184,0.0,0.0,90,0.00,,,0.00,weatherlink.com 1.10,2013-12-25 05:53:00,
2013-12-25 01:08:00,12.7,10.0,30.44,South,185,0.0,0.0,90,0.00,,,0.00,weatherlink.com 1.10,2013-12-25 06:08:00,
2013-12-25 01:23:00,13.0,11.0,30.44,South,184,0.0,0.0,90,0.00,,,0.00,weatherlink.com 1.10,2013-12-25 06:23:00,
2013-12-25 01:38:00,13.2,11.0,30.43,South,186,0.0,0.0,90,0.00,,,0.00,weatherlink.com 1.10,2013-12-25 06:38:00,
2013-12-25 01:53:00,13.4,11.0,30.43,South,184,0.0,0.0,90,0.00,,,0.00,weatherlink.com 1.10,2013-12-25 06:53:00,
2013-12-25 02:08:00,13.6,11.0,30.42,South,184,0.0,0.0,90,0.00,,,0.00,weatherlink.com 1.10,2013-12-25 07:08:00,
2013-12-25 02:23:00,13.8,11.0,30.42,South,184,0.0,0.0,90,0.00,,,0.00,weatherlink.com 1.10,2013-12-25 07:23:00,
2013-12-25 02:38:00,14.0,12.0,30.41,South,186,0.0,0.0,90,0.00,,,0.00,weatherlink.com 1.10,2013-12-25 07:38:00,
2013-12-25 02:53:00,14.3,12.0,30.41,South,184,0.0,0.0,90,0.00,,,0.00,weatherlink.com 1.10,2013-12-25 07:53:00,
2013-12-25 03:08:00,14.5,12.0,30.41,South,184,0.0,1.0,90,0.00,,,0.00,weatherlink.com 1.10,2013-12-25 08:08:00,
2013-12-25 03:23:00,14.7,12.0,30.41,South,184,0.0,1.0,90,0.00,,,0.00,weatherlink.com 1.10,2013-12-25 08:23:00,
2013-12-25 03:38:00,14.9,13.0,30.40,South,185,0.0,0.0,90,0.00,,,0.00,weatherlink.com 1.10,2013-12-25 08:38:00,
2013-12-25 03:53:00,15.1,13.0,30.38,South,184,0.0,0.0,90,0.00,,,0.00,weatherlink.com 1.10,2013-12-25 08:53:00,
2013-12-25 04:08:00,15.4,13.0,30.37,South,184,0.0,0.0,90,0.00,,,0.00,weatherlink.com 1.10,2013-12-25 09:08:00,
2013-12-25 04:23:00,15.7,13.0,30.37,South,185,0.0,1.0,90,0.00,,,0.00,weatherlink.com 1.10,2013-12-25 09:23:00,
2013-12-25 04:38:00,16.0,14.0,30.34,South,184,0.0,0.0,90,0.00,,,0.00,weatherlink.com 1.10,2013-12-25 09:38:00,
2013-12-25 04:53:00,16.2,14.0,30.33,South,184,0.0,0.0,90,0.00,,,0.00,weatherlink.com 1.10,2013-12-25 09:53:00,
2013-12-25 05:08:00,16.6,14.0,30.32,South,184,0.0,0.0,90,0.00,,,0.00,weatherlink.com 1.10,2013-12-25 10:08:00,
2013-12-25 05:23:00,16.9,15.0,30.31,South,184,0.0,1.0,90,0.00,,,0.00,weatherlink.com 1.10,2013-12-25 10:23:00,
2013-12-25 05:39:00,17.1,14.0,30.32,South,184,0.0,1.0,89,0.00,,,0.00,weatherlink.com 1.10,2013-12-25 10:39:00,
2013-12-25 05:54:00,17.2,15.0,30.33,South,186,0.0,0.0,89,0.00,,,0.00,weatherlink.com 1.10,2013-12-25 10:54:00,
2013-12-25 06:09:00,17.3,15.0,30.33,South,184,0.0,0.0,89,0.00,,,0.00,weatherlink.com 1.10,2013-12-25 11:09:00,
2013-12-25 06:24:00,17.4,15.0,30.32,South,184,0.0,0.0,89,0.00,,,0.00,weatherlink.com 1.10,2013-12-25 11:24:00,
2013-12-25 06:39:00,17.5,15.0,30.31,South,184,0.0,0.0,90,0.00,,,0.00,weatherlink.com 1.10,2013-12-25 11:39:00,
2013-12-25 06:54:00,17.5,15.0,30.30,South,184,0.0,0.0,90,0.00,,,0.00,weatherlink.com 1.10,2013-12-25 11:54:00,
2013-12-25 07:09:00,17.7,15.0,30.29,South,185,0.0,0.0,90,0.00,,,0.00,weatherlink.com 1.10,2013-12-25 12:09:00,
2013-12-25 07:24:00,17.8,15.0,30.30,South,184,0.0,0.0,90,0.00,,,0.00,weatherlink.com 1.10,2013-12-25 12:24:00,
2013-12-25 07:39:00,17.9,16.0,30.30,South,184,0.0,0.0,90,0.00,,,0.00,weatherlink.com 1.10,2013-12-25 12:39:00,
2013-12-25 07:54:00,18.1,16.0,30.30,South,184,0.0,0.0,90,0.00,,,0.00,weatherlink.com 1.10,2013-12-25 12:54:00,
2013-12-25 08:09:00,18.1,16.0,30.30,South,184,0.0,0.0,91,0.00,,,0.00,weatherlink.com 1.10,2013-12-25 13:09:00,
2013-12-25 08:24:00,18.3,16.0,30.29,South,185,0.0,0.0,91,0.00,,,0.00,weatherlink.com 1.10,2013-12-25 13:24:00,
2013-12-25 08:39:00,18.4,16.0,30.29,South,184,0.0,0.0,91,0.00,,,0.00,weatherlink.com 1.10,2013-12-25 13:39:00,
2013-12-25 08:54:00,18.5,16.0,30.29,South,184,0.0,0.0,91,0.00,,,0.00,weatherlink.com 1.10,2013-12-25 13:54:00,
2013-12-25 09:09:00,18.8,17.0,30.28,South,184,0.0,0.0,91,0.00,,,0.00,weatherlink.com 1.10,2013-12-25 14:09:00,
2013-12-25 09:24:00,19.2,17.0,30.28,South,186,0.0,0.0,91,0.00,,,0.00,weatherlink.com 1.10,2013-12-25 14:24:00,
2013-12-25 09:39:00,19.5,17.0,30.28,South,184,0.0,0.0,91,0.00,,,0.00,weatherlink.com 1.10,2013-12-25 14:39:00,
2013-12-25 09:54:00,19.7,18.0,30.27,South,184,0.0,1.0,91,0.00,,,0.00,weatherlink.com 1.10,2013-12-25 14:54:00,
2013-12-25 10:09:00,20.0,18.0,30.27,South,184,0.0,1.0,91,0.00,,,0.00,weatherlink.com 1.10,2013-12-25 15:09:00,
2013-12-25 10:24:00,20.1,18.0,30.27,South,184,0.0,1.0,91,0.00,,,0.00,weatherlink.com 1.10,2013-12-25 15:24:00,
2013-12-25 10:39:00,20.4,18.0,30.27,South,184,0.0,1.0,91,0.00,,,0.00,weatherlink.com 1.10,2013-12-25 15:39:00,
2013-12-25 10:54:00,20.7,19.0,30.26,South,184,0.0,1.0,91,0.00,,,0.00,weatherlink.com 1.10,2013-12-25 15:54:00,
2013-12-25 11:09:00,21.0,19.0,30.26,South,186,0.0,1.0,90,0.00,,,0.00,weatherlink.com 1.10,2013-12-25 16:09:00,
2013-12-25 11:24:00,21.3,19.0,30.25,South,186,0.0,1.0,90,0.00,,,0.00,weatherlink.com 1.10,2013-12-25 16:24:00,
2013-12-25 11:39:00,21.6,19.0,30.24,South,186,0.0,2.0,90,0.00,,,0.00,weatherlink.com 1.10,2013-12-25 16:39:00,
2013-12-25 11:54:00,21.8,19.0,30.23,South,185,0.0,1.0,90,0.00,,,0.00,weatherlink.com 1.10,2013-12-25 16:54:00,
2013-12-25 12:09:00,21.9,20.0,30.22,South,184,0.0,1.0,90,0.00,,,0.00,weatherlink.com 1.10,2013-12-25 17:09:00,
2013-12-25 12:24:00,22.0,20.0,30.21,South,184,1.0,1.0,90,0.00,,,0.00,weatherlink.com 1.10,2013-12-25 17:24:00,
2013-12-25 12:39:00,22.0,20.0,30.20,South,184,0.0,1.0,90,0.00,,,0.00,weatherlink.com 1.10,2013-12-25 17:39:00,
2013-12-25 12:54:00,22.1,20.0,30.20,South,185,0.0,1.0,90,0.00,,,0.00,weatherlink.com 1.10,2013-12-25 17:54:00,
2013-12-25 13:09:00,22.3,20.0,30.19,South,184,0.0,0.0,91,0.00,,,0.00,weatherlink.com 1.10,2013-12-25 18:09:00,
2013-12-25 13:24:00,22.5,20.0,30.19,South,184,0.0,0.0,91,0.00,,,0.00,weatherlink.com 1.10,2013-12-25 18:24:00,
2013-12-25 13:39:00,22.5,20.0,30.18,South,184,0.0,0.0,91,0.00,,,0.00,weatherlink.com 1.10,2013-12-25 18:39:00,
2013-12-25 13:54:00,22.7,21.0,30.18,South,186,0.0,0.0,91,0.00,,,0.00,weatherlink.com 1.10,2013-12-25 18:54:00,
2013-12-25 14:09:00,22.8,21.0,30.17,South,185,0.0,0.0,91,0.00,,,0.00,weatherlink.com 1.10,2013-12-25 19:09:00,
2013-12-25 14:25:00,22.9,21.0,30.16,South,186,0.0,0.0,91,0.00,,,0.00,weatherlink.com 1.10,2013-12-25 19:25:00,
2013-12-25 14:40:00,23.0,21.0,30.16,South,184,0.0,0.0,91,0.00,,,0.00,weatherlink.com 1.10,2013-12-25 19:40:00,
2013-12-25 14:55:00,23.1,21.0,30.16,South,184,0.0,0.0,91,0.00,,,0.00,weatherlink.com 1.10,2013-12-25 19:55:00,
2013-12-25 15:10:00,23.1,21.0,30.16,South,184,0.0,0.0,92,0.00,,,0.00,weatherlink.com 1.10,2013-12-25 20:10:00,
2013-12-25 15:25:00,23.1,21.0,30.16,South,184,0.0,0.0,92,0.00,,,0.00,weatherlink.com 1.10,2013-12-25 20:25:00,
2013-12-25 15:40:00,23.2,21.0,30.16,South,184,0.0,0.0,92,0.00,,,0.00,weatherlink.com 1.10,2013-12-25 20:40:00,
2013-12-25 15:55:00,23.3,21.0,30.16,South,184,0.0,0.0,92,0.00,,,0.00,weatherlink.com 1.10,2013-12-25 20:55:00,
2013-12-25 16:10:00,23.3,21.0,30.16,South,184,0.0,0.0,92,0.00,,,0.00,weatherlink.com 1.10,2013-12-25 21:10:00,
2013-12-25 16:25:00,23.4,22.0,30.16,South,184,0.0,0.0,92,0.00,,,0.00,weatherlink.com 1.10,2013-12-25 21:25:00,
2013-12-25 16:40:00,23.4,22.0,30.16,South,185,0.0,0.0,92,0.00,,,0.00,weatherlink.com 1.10,2013-12-25 21:40:00,
2013-12-25 16:55:00,23.4,22.0,30.16,South,184,0.0,0.0,92,0.00,,,0.00,weatherlink.com 1.10,2013-12-25 21:55:00,
2013-12-25 17:10:00,23.4,22.0,30.16,South,184,0.0,0.0,92,0.00,,,0.00,weatherlink.com 1.10,2013-12-25 22:10:00,
2013-12-25 17:25:00,23.3,21.0,30.16,South,184,0.0,0.0,92,0.00,,,0.00,weatherlink.com 1.10,2013-12-25 22:25:00,
2013-12-25 17:40:00,23.3,21.0,30.15,South,184,0.0,0.0,92,0.00,,,0.00,weatherlink.com 1.10,2013-12-25 22:40:00,
2013-12-25 17:55:00,23.3,21.0,30.15,South,185,0.0,0.0,92,0.00,,,0.00,weatherlink.com 1.10,2013-12-25 22:55:00,
2013-12-25 18:10:00,23.4,22.0,30.15,South,184,0.0,0.0,92,0.00,,,0.00,weatherlink.com 1.10,2013-12-25 23:10:00,
2013-12-25 18:25:00,23.4,22.0,30.15,South,185,0.0,0.0,92,0.00,,,0.00,weatherlink.com 1.10,2013-12-25 23:25:00,
2013-12-25 18:40:00,23.5,22.0,30.14,South,186,0.0,0.0,92,0.00,,,0.00,weatherlink.com 1.10,2013-12-25 23:40:00,
2013-12-25 18:55:00,23.5,22.0,30.14,South,184,0.0,0.0,92,0.00,,,0.00,weatherlink.com 1.10,2013-12-25 23:55:00,
2013-12-25 19:10:00,23.6,22.0,30.14,South,184,0.0,0.0,92,0.00,,,0.00,weatherlink.com 1.10,2013-12-26 00:10:00,
2013-12-25 19:25:00,23.6,22.0,30.14,South,185,0.0,0.0,92,0.00,,,0.00,weatherlink.com 1.10,2013-12-26 00:25:00,
2013-12-25 19:40:00,23.6,22.0,30.13,South,185,0.0,0.0,92,0.00,,,0.00,weatherlink.com 1.10,2013-12-26 00:40:00,
2013-12-25 19:55:00,23.8,22.0,30.13,South,184,0.0,0.0,93,0.00,,,0.00,weatherlink.com 1.10,2013-12-26 00:55:00,
2013-12-25 20:10:00,23.8,22.0,30.13,South,185,0.0,0.0,93,0.00,,,0.00,weatherlink.com 1.10,2013-12-26 01:10:00,
2013-12-25 20:25:00,23.8,22.0,30.13,South,184,0.0,0.0,93,0.00,,,0.00,weatherlink.com 1.10,2013-12-26 01:25:00,
2013-12-25 20:40:00,23.8,22.0,30.12,South,184,0.0,0.0,93,0.00,,,0.00,weatherlink.com 1.10,2013-12-26 01:40:00,
2013-12-25 20:55:00,23.9,22.0,30.12,South,184,0.0,0.0,93,0.00,,,0.00,weatherlink.com 1.10,2013-12-26 01:55:00,
2013-12-25 21:10:00,23.8,22.0,30.12,South,185,0.0,0.0,93,0.00,,,0.00,weatherlink.com 1.10,2013-12-26 02:10:00,
2013-12-25 21:25:00,23.8,22.0,30.11,South,184,0.0,0.0,93,0.00,,,0.00,weatherlink.com 1.10,2013-12-26 02:25:00,
2013-12-25 21:40:00,23.9,22.0,30.11,South,185,0.0,0.0,93,0.00,,,0.00,weatherlink.com 1.10,2013-12-26 02:40:00,
2013-12-25 21:55:00,24.0,22.0,30.10,South,184,0.0,0.0,93,0.00,,,0.00,weatherlink.com 1.10,2013-12-26 02:55:00,
2013-12-25 22:10:00,24.2,23.0,30.10,South,184,0.0,0.0,93,0.00,,,0.00,weatherlink.com 1.10,2013-12-26 03:10:00,
2013-12-25 22:25:00,24.3,23.0,30.09,South,185,0.0,0.0,93,0.00,,,0.00,weatherlink.com 1.10,2013-12-26 03:25:00,
2013-12-25 22:40:00,24.3,23.0,30.09,South,184,0.0,0.0,93,0.00,,,0.00,weatherlink.com 1.10,2013-12-26 03:40:00,
2013-12-25 22:55:00,24.4,23.0,30.08,South,185,0.0,0.0,93,0.00,,,0.00,weatherlink.com 1.10,2013-12-26 03:55:00,
2013-12-25 23:10:00,24.4,23.0,30.08,South,185,0.0,0.0,94,0.00,,,0.00,weatherlink.com 1.10,2013-12-26 04:10:00,
2013-12-25 23:25:00,24.4,23.0,30.07,South,184,0.0,0.0,94,0.00,,,0.00,weatherlink.com 1.10,2013-12-26 04:25:00,
2013-12-25 23:40:00,24.5,23.0,30.07,South,184,0.0,0.0,94,0.00,,,0.00,weatherlink.com 1.10,2013-12-26 04:40:00,
2013-12-25 23:55:00,24.5,23.0,30.06,South,184,0.0,0.0,94,0.00,,,0.00,weatherlink.com 1.10,2013-12-26 04:55:00,